Regional Weather Roundup
Issued by NWS Newport/Morehead, NC

Current Version | Previous Version | Text Only | Print | Product List | Glossary On
Versions: 1 2 3 4 5 6 7 8 9 10 11 12 13 14 15 16 17 18 19 20 21 22 23 24 25 26 27 28 29 30 31 32 33 34 35 36 37 38 39 40 41 42 43 44 45 46 47 48 49 50
000 ASUS42 KMHX 260713 RWRMHX WEATHER ROUNDUP FOR EASTERN NORTH CAROLINA NATIONAL WEATHER SERVICE NEWPORT/MOREHEAD CITY NC 300 AM EDT WED APR 26 2017 NOTE: "FAIR" INDICATES FEW OR NO CLOUDS BELOW 12,000 FEET WITH NO SIGNIFICANT WEATHER AND/OR OBSTRUCTIONS TO VISIBILITY NCZ015>017-031-032-045>047-102-103-260800- NORTH COAST CITY SKY/WX TMP DP RH WIND PRES REMARKS EDENTON CLOUDY 65 63 90 NW8 29.69F ELIZABETH CITY CLOUDY 63 63 100 SW6 29.67F KITTY HAWK MOSUNNY 64 64 100 CALM 29.66S MANTEO MOCLDY 63 62 96 W7 29.68S $$ NCZ045>047-081-094-103-104-260800- CENTRAL COAST CITY SKY/WX TMP DP RH WIND PRES REMARKS FRISCO PTCLDY 66 61 84 W9G18 29.69S $$ NCZ095-097-098-100-101-260800- SOUTHERN COAST CITY SKY/WX TMP DP RH WIND PRES REMARKS BEAUFORT CLEAR 62 61 96 W8 29.72S CEDAR ISLAND NOT AVBL JACKSONVILLE CLOUDY 61 61 100 W9 29.72F PINEY ISLAND SUNNY N/A N/A N/A W13 29.70F WILMINGTON CLOUDY 61 60 97 W7 29.75S $$ NCZ011>013-027>030-043-044-078>080-089-090>093-098-260800- COASTAL PLAIN CITY SKY/WX TMP DP RH WIND PRES REMARKS AHOSKIE N/A 60 59 97 CALM 29.71S CLINTON CLOUDY 62 61 97 CALM 29.75S ELIZABETHTOWN CLOUDY 61 60 95 NW9 29.76S GOLDSBORO CLOUDY 61 61 100 W5 29.72F GREENVILLE CLOUDY 63 63 100 NW5 29.75S HAVELOCK NOT AVBL KENANSVILLE CLOUDY 61 59 94 CALM 29.74S KINSTON CLOUDY 62 61 97 CALM 29.73F NEW BERN CLEAR 60 59 96 W5 29.72F RICHLANDS CLOUDY 61 60 97 VRB3 29.74S ROCKY MOUNT CLOUDY 61 59 93 NW6 29.73S WASHINGTON CLOUDY 63 61 95 CALM 29.70F WHITEVILLE CLEAR 59 58 96 CALM 29.76S $$ AMZ130-135-150-152-154-156-158-170-250-252-270-ANZ085-086-088-633-658-670-260800- MARINE OBSERVATIONS STATION/POSITION TIME TEMP WIND PRES WAVE SWELL AIR SEA DIR/SP/G HT/PER HT/PER (UTC) (F) (DEG/KT/KT) (MB) (FT/S) (FT/S) CHESAPEAKE LIGHT NOT AVBL 64 E VA BEACH 0650 55 54 290/ 2/ 4 1004.6 7/ 8 7/ 8 DUCK 0642 64 58 280/ 5/ 6 1004.0 2 E DUCK 0700 59 N/A 5/ 8 2/11 OREGON INLET 0642 64 64 270/ 5/ 8 1004.6 13E OREGON INLT 0648 58 N/A 6/10 7/10 HATTERAS CG 0642 66 68 270/ 16/ 18 1005.0 DIAMOND BUOY 0650 69 77 270/ 17/ 21 1005.2 9/ 9 7/ 9 CAPE LOOKOUT 0700 64 280/ 11/ 13 1006.1 BEAUFORT LAB 0642 62 66 270/ 5/ 9 1005.4 30 SE NEW RVR IN 0608 65 290/ 12/ 17 1007.0 30 SE NEW RVR IN 0643 71 N/A 6/ 9 2/11 27 SE WRIGHTSVLE 0608 65 71 290/ 14/ 21 1006.5 5 SE WRIGHTSVLE 0608 64 70 290/ 14/ 17 1007.3 225 S CAPE HAT 0650 72 75 220/ 21/ 27 1008.6 9/ 8 2/14 41 SE CHARLESTON 0650 71 72 330/ 6/ 8 1008.5 5/ 9 5/ 9 $$

USA.gov is the U.S. government's official web portal to all federal, state and local government web resources and services.